Regional Weather Roundup
Issued by NWS

Home | Current Version | Previous Version | Text Only | Print | Product List | Glossary On
Versions: 1 2 3 4 5 6 7 8 9 10 11 12 13 14 15 16 17 18 19 20 21 22 23 24 25 26 27 28 29 30 31 32 33 34 35 36 37 38 39 40 41 42 43 44 45 46 47 48 49 50
000
ASUS43 KDTX 210801
RWRMI
MICHIGAN HOURLY REGIONAL WEATHER ROUNDUP
NATIONAL WEATHER SERVICE DETROIT/PONTIAC MI
400 AM EDT THU SEP 21 2017

NOTE: "FAIR" INDICATES FEW OR NO CLOUDS BELOW 12,000 FEET WITH NO
SIGNIFICANT WEATHER AND/OR OBSTRUCTION TO VISIBILITY.

MIZ047>049-052>055-059>063-066>070-074>076-081>083-210900-
SOUTHEAST LOWER MICHIGAN

CITY           SKY/WX    TMP DP  RH WIND       PRES   REMARKS
ALMA           CLOUDY    70  65  83 S12       30.01S
ANN ARBOR      CLOUDY    64  64 100 CALM      30.04F FOG
BAD AXE        CLOUDY    67  64  91 S5        30.04S
CARO           CLOUDY    66  64  91 SE3       30.02F
DETROIT CITY   CLOUDY    66  65  96 E5        30.05F
DETROIT        CLOUDY    67  67 100 E3        30.05F FOG
FLINT          CLOUDY    68  64  87 S7        30.03F
GROSSE ILE     CLOUDY    68  65  90 CALM      30.04S
HILLSDALE      CLOUDY    68  64  88 S3        30.04F
HOWELL         CLOUDY    67  65  93 SE5       30.04S

CITY           SKY/WX    TMP DP  RH WIND       PRES   REMARKS
JACKSON        CLOUDY    70  66  87 CALM      30.04S
LAMBERTVILLE   CLOUDY    66  63  92 CALM      30.04S FOG
LANSING        CLOUDY    71  65  81 SE7       30.02S
LAPEER         FAIR      64  63  96 CALM      30.05S FOG
MASON          CLOUDY    70  66  86 SE7       30.03S
MONROE         CLOUDY    65  63  93 CALM      30.04F FOG
MT. CLEMENS    PTCLDY    62  62 100 E6        30.04F FOG
PONTIAC        CLOUDY    65  64  97 CALM      30.05F
PORT HURON     MOCLDY    61  59  94 CALM      30.06F FOG
TRI CITIES     CLOUDY    71  68  90 S10       30.00F
MIDLAND        FAIR      70  64  82 S3        29.99S
TROY           CLOUDY    67  65  93 CALM      30.07F
SAGINAW HB     CLOUDY    68  64  88 S6        30.01S
$$
MIZ043>046-050>051-056>058-064>065-071>073-077>080-210900-
SOUTHWEST LOWER MICHIGAN

CITY           SKY/WX    TMP DP  RH WIND       PRES   REMARKS
BATTLE CREEK   CLOUDY    72  68  87 S6        30.01F
BENTON HARBOR  CLOUDY    70  66  87 SE3       29.97F
BIG RAPIDS     CLOUDY    65  62  91 SW3       29.97F
COLDWATER      CLOUDY    70  70  98 CALM      30.03S
FREMONT        FAIR      72  69  90 SE3       29.94F
HOLLAND        MOCLDY    72  67  84 CALM      29.98F
GRAND RAPIDS   CLOUDY    70  68  93 CALM      29.99S
IONIA          MOCLDY    71  67  87 S6        29.99F
KALAMAZOO      CLOUDY    72  66  81 S5        30.00F
LUDINGTON      CLOUDY    71  63  75 S3        29.90F
MARSHALL       CLOUDY    68  68  99 SE3       30.02S
MOUNT PLEASANT CLOUDY    72  65  78 S3        29.98F
MUSKEGON       CLOUDY    73  68  84 SE7       29.95F
SOUTH HAVEN    CLOUDY    73  69  86 CALM      29.97F
$$
MIZ016>042-210900-
NORTHERN LOWER MICHIGAN

CITY           SKY/WX    TMP DP  RH WIND       PRES   REMARKS
ALPENA         CLOUDY    66  66 100 SE3       30.00R FOG
BEAVER ISLAND  CLOUDY    66  66  99 CALM      29.94S FOG
BELLAIRE       CLOUDY    67  65  93 CALM      29.96R
CADILLAC       CLOUDY    73  65  76 S8        29.96F
CHARLEVOIX     MOCLDY    70  65  82 SE5       29.98R
FRANKFORT      CLOUDY    71  68  92 CALM      29.91F
GAYLORD        CLOUDY    68  63  84 NE5       29.99R
GRAYLING       CLOUDY    68  63  83 CALM      29.98F
HARBOR SPRINGS CLOUDY    68  67  94 E6        29.96S
HOUGHTON LAKE  MOCLDY    70  64  81 S9        29.99F
MANISTEE       CLOUDY    71  65  81 W18       29.94R
OSCODA         CLOUDY    69  67  95 S3        30.00S
PELLSTON       LGT RAIN  68  65  90 CALM      29.96S
ROGERS CITY    CLOUDY    70  64  83 NE6       30.03R
TRAVERSE CITY  CLOUDY    75  67  76 CALM      29.93R
$$
MIZ007>008-015-210900-
EASTERN UPPER MICHIGAN

CITY           SKY/WX    TMP DP  RH WIND       PRES   REMARKS
KINROSS        CLOUDY    67  65  93 SE7       29.99R
MACKINAC ISLAN CLOUDY    66  66  99 E10       29.96R
NEWBERRY       CLOUDY    64  63  96 CALM      29.96R FOG
S. S. MARIE    CLOUDY    69  66  90 SE10      29.98R
MUNISING         N/A     64  64 100 NW6       29.96S
$$
MIZ004>006-011>014-085-210900-
CENTRAL UPPER MICHIGAN

CITY           SKY/WX    TMP DP  RH WIND       PRES   REMARKS
MANISTIQUE     HAZE      64  58  81 CALM      29.95S VSB 3/4
ESCANABA       FOG       66  66 100 NW3       29.95S VSB 3/4
MENOMINEE      CLOUDY    67  66  97 NW3       29.94S FOG
SAWYER-GWINN   CLOUDY    64  60  88 N5        30.00R
$$
MIZ001>003-009>011-084-210900-
WESTERN UPPER MICHIGAN

CITY           SKY/WX    TMP DP  RH WIND       PRES   REMARKS
IRON MOUNTAIN  CLOUDY    61  59  93 CALM      29.98R FOG
HOUGHTON       CLEAR     54  52  93 N6        29.98S
COPPER HARBOR    N/A     58  56  93 CALM      29.97F
IRONWOOD       FOG       45  45 100 CALM      30.01S VSB 1/2
$$

ABBREVIATIONS USED IN REMARKS
   TC - TEMPERATURE IN CELSIUS
  WCI - WIND CHILL INDEX
   HX - HEAT INDEX
  VSB - VISIBILITY




USA.gov is the U.S. government's official web portal to all federal, state and local government web resources and services.